Location: Ceske Budejovice
(48.9830°N, 14.4670°E)
Time: 08:56:36
(UTC+02:00)

ISS - Pass Details

Date: 23 April 2024
Orbit: 409 x 414 km, 51.6° (Epoch: 21 May)

Event Time Altitude Azimuth Distance (km) Brightness Sun altitude
Exits shadow 04:40:01 10° 187° (S) 1,480 -1.4 -11.7°
Reaches altitude 10° 04:40:03 10° 186° (S) 1,471 -1.4 -11.7°
Maximum altitude 04:42:26 19° 140° (SE) 1,059 -1.7 -11.4°
Drops below altitude 10° 04:44:49 10° 93° (E) 1,476 -0.2 -11.1°
Sets 04:47:19 0° 75° (ENE) 2,340 1.6 -10.7°
